Location: Unspecified
(43.3830°N, 0.0000°E)
Time: 09:28:45
(UTC+00:00)

N. Korean satellite - Pass Details

Date: 29 November 2020
Orbit: 453 x 502 km, 97.2° (Epoch: 16 January)

Event Time Altitude Azimuth Distance (km) Brightness Sun altitude
Rises 05:02:20 0° 20° (NNE) 2,556 10.4 -22.8°
Reaches altitude 10° 05:04:31 10° 30° (NNE) 1,679 9.5 -22.4°
Maximum altitude 05:07:52 35° 98° (E) 805 8.2 -21.8°
Drops below altitude 10° 05:11:14 10° 165° (SSE) 1,688 9.6 -21.2°
Sets 05:13:26 0° 175° (S) 2,572 10.4 -20.8°
